Location: Brno
(49.2000°N, 16.6330°E)
Time: 01:05:32
(UTC+02:00)

Transit 4A - Pass Details

Date: 03 August 2021
Orbit: 870 x 974 km, 66.8° (Epoch: 26 September)

Event Time Altitude Azimuth Distance (km) Brightness Sun altitude
Rises 04:26:41 0° 299° (WNW) 3,467 10.7 -9.1°
Reaches altitude 10° 04:30:34 10° 325° (NW) 2,527 10.2 -8.6°
Maximum altitude 04:33:30 14° 355° (N) 2,260 10.4 -8.3°
Drops below altitude 10° 04:36:26 10° 26° (NNE) 2,534 11.4 -7.9°
Sets 04:40:21 0° 51° (NE) 3,484 13.6 -7.4°
